Marshfield, MA

4:38 PM EST on November 15, 2019 (GMT -0500)
Marshfield

Weather History for KGHG - July, 2019

Change the Weather History Date:

Saturday, July 20, 2019

  Actual Average (WUND) Record (WUND)
Temperature  
Mean Temperature 85 °F -  
Max Temperature 93 °F - - (-1)
Min Temperature 77 °F - - (-1)
Cooling Degree Days 20    
Growing Degree Days 35 (Base 50)    
Moisture  
Dew Point 77 °F    
Average Humidity 77    
Maximum Humidity 100    
Minimum Humidity 56    
Precipitation  
Precipitation 0.00 in - - ()
Sea Level Pressure  
Sea Level Pressure 29.76 in    
Wind  
Wind Speed 5 mph (SSW)    
Max Wind Speed 9 mph    
Max Gust Speed 16 mph    
Visibility 10 miles    
Events      
Averages and records for this station are not official NWS values.
T = Trace of Precipitation, MM = Missing Value Source: NWS Daily Summary

Daily Weather History Graph

Daily Weather History Graph

Search for Another Location

Airport or City:

Astronomy

Jul. 20, 2019 Rise Set
Actual Time 5:24 AM EDT 8:13 PM EDT
Civil Twilight 4:51 AM EDT 8:46 PM EDT
Nautical Twilight 4:09 AM EDT 9:27 PM EDT
Astronomical Twilight 3:21 AM EDT 10:15 PM EDT
Moon 10:36 PM EDT (7/20) 8:47 AM EDT (7/20)
Length of Visible Light 15h 55m
Length of Day
14h 49m
Waning Gibbous, 87% of the Moon is Illuminated
Jul 20
Waning Gibbous
Jul 24
Last Quarter
Jul 31
New
Aug 7
First Quarter
Aug 15
Full

Hourly Weather History & Observations

Time (EDT) Temp. Heat Index Dew Point Humidity Pressure Visibility Wind Dir Wind Speed Gust Speed Precip Events Conditions
12:15 AM 78.8 °F - 77.0 °F 94% 29.78 in 10.0 mi WSW 5.8 mph - N/A   Clear
12:35 AM 78.8 °F - 77.0 °F 94% 29.77 in 10.0 mi WSW 5.8 mph - N/A   Clear
12:55 AM 78.8 °F - 77.0 °F 94% 29.77 in 10.0 mi Variable 5.8 mph 11.5 mph N/A   Clear
1:15 AM 78.8 °F - 77.0 °F 94% 29.76 in 10.0 mi Variable 5.8 mph - N/A   Clear
1:35 AM 78.8 °F - 77.0 °F 94% 29.76 in 10.0 mi WSW 5.8 mph - N/A   Clear
1:55 AM 78.8 °F - 77.0 °F 94% 29.76 in 10.0 mi Variable 5.8 mph 11.5 mph N/A   Clear
2:15 AM 78.8 °F - 77.0 °F 94% 29.76 in 10.0 mi Variable 6.9 mph 16.1 mph N/A   Clear
2:35 AM 78.8 °F - 77.0 °F 94% 29.76 in 10.0 mi Variable 6.9 mph - N/A   Clear
2:55 AM 78.8 °F - 77.0 °F 94% 29.76 in 10.0 mi Variable 4.6 mph - N/A   Clear
3:15 AM 78.8 °F - 77.0 °F 94% 29.75 in 10.0 mi WSW 4.6 mph - N/A   Clear
3:35 AM 78.8 °F - 77.0 °F 94% 29.75 in 10.0 mi Calm Calm - N/A   Clear
3:55 AM 78.8 °F - 77.0 °F 94% 29.76 in 10.0 mi West 4.6 mph 11.5 mph N/A   Clear
4:15 AM 77.0 °F - 77.0 °F 100% 29.75 in 10.0 mi WSW 5.8 mph - N/A   Clear
4:35 AM 77.0 °F - 77.0 °F 100% 29.76 in 10.0 mi Variable 5.8 mph - N/A   Clear
4:55 AM 77.0 °F - 77.0 °F 100% 29.76 in 10.0 mi WSW 4.6 mph - N/A   Clear
5:15 AM 77.0 °F - 77.0 °F 100% 29.76 in 10.0 mi WSW 5.8 mph - N/A   Clear
5:35 AM 77.0 °F - 77.0 °F 100% 29.76 in 10.0 mi WSW 5.8 mph - N/A   Clear
5:55 AM 77.0 °F - 77.0 °F 100% 29.78 in 10.0 mi WSW 6.9 mph - N/A   Clear
6:15 AM 78.8 °F - 77.0 °F 94% 29.78 in 10.0 mi Variable 4.6 mph - N/A   Clear
6:35 AM 78.8 °F - 77.0 °F 94% 29.79 in 10.0 mi WSW 4.6 mph - N/A   Clear
6:55 AM 80.6 °F 87.1 °F 77.0 °F 89% 29.80 in 10.0 mi Variable 4.6 mph 11.5 mph N/A   Clear
7:15 AM 82.4 °F 90.9 °F 77.0 °F 84% 29.80 in 10.0 mi Variable 5.8 mph - N/A   Clear
7:35 AM 82.4 °F 90.9 °F 77.0 °F 84% 29.80 in 10.0 mi Variable 5.8 mph 12.7 mph N/A   Clear
7:55 AM 84.2 °F 94.1 °F 77.0 °F 79% 29.80 in 10.0 mi Variable 6.9 mph - N/A   Clear
8:15 AM 84.2 °F 94.1 °F 77.0 °F 79% 29.80 in 10.0 mi Variable 5.8 mph - N/A   Clear
8:35 AM 86.0 °F 96.9 °F 77.0 °F 74% 29.80 in 10.0 mi Variable 4.6 mph - N/A   Clear
8:55 AM 87.8 °F 99.7 °F 77.0 °F 70% 29.80 in 10.0 mi Variable 5.8 mph - N/A   Clear
9:15 AM 87.8 °F 99.7 °F 77.0 °F 70% 29.79 in 10.0 mi Variable 6.9 mph - N/A   Clear
9:35 AM 89.6 °F 99.8 °F 75.2 °F 62% 29.80 in 10.0 mi Variable 6.9 mph 13.8 mph N/A   Clear
9:55 AM 89.6 °F 102.2 °F 77.0 °F 66% 29.80 in 10.0 mi Variable 4.6 mph - N/A   Clear
10:15 AM 89.6 °F 99.8 °F 75.2 °F 62% 29.79 in 10.0 mi Variable 5.8 mph 12.7 mph N/A   Clear
10:35 AM 91.4 °F 102.5 °F 75.2 °F 59% 29.79 in 10.0 mi Variable 4.6 mph - N/A   Clear
10:55 AM 91.4 °F 102.5 °F 75.2 °F 59% 29.79 in 10.0 mi Variable 5.8 mph - N/A   Clear
11:15 AM 91.4 °F 102.5 °F 75.2 °F 59% 29.80 in 10.0 mi Variable 5.8 mph 11.5 mph N/A   Clear
11:35 AM 93.2 °F 105.0 °F 75.2 °F 56% 29.79 in 10.0 mi Variable 4.6 mph - N/A   Clear
11:55 AM 93.2 °F 105.0 °F 75.2 °F 56% 29.79 in 10.0 mi West 5.8 mph - N/A   Clear
12:15 PM 93.2 °F 105.0 °F 75.2 °F 56% 29.79 in 10.0 mi Variable 4.6 mph - N/A   Clear
12:35 PM 89.6 °F 99.8 °F 75.2 °F 62% 29.79 in 10.0 mi NE 6.9 mph - N/A   Partly Cloudy
12:55 PM 91.4 °F 102.5 °F 75.2 °F 59% 29.79 in 10.0 mi ENE 4.6 mph - N/A   Scattered Clouds
1:15 PM 91.4 °F 102.5 °F 75.2 °F 59% 29.78 in 10.0 mi ENE 5.8 mph - N/A   Scattered Clouds
1:35 PM 91.4 °F 102.5 °F 75.2 °F 59% 29.77 in 10.0 mi ENE 5.8 mph - N/A   Scattered Clouds
1:55 PM 91.4 °F 102.5 °F 75.2 °F 59% 29.77 in 10.0 mi East 5.8 mph - N/A   Clear
2:15 PM 91.4 °F 102.5 °F 75.2 °F 59% 29.77 in 10.0 mi Variable 3.5 mph - N/A   Partly Cloudy
2:35 PM 89.6 °F 102.2 °F 77.0 °F 66% 29.76 in 10.0 mi SE 4.6 mph - N/A   Partly Cloudy
2:55 PM 91.4 °F 105.1 °F 77.0 °F 63% 29.76 in 10.0 mi Variable 6.9 mph - N/A   Partly Cloudy
3:15 PM 87.8 °F 97.6 °F 75.2 °F 66% 29.76 in 10.0 mi SE 5.8 mph - N/A   Partly Cloudy
3:35 PM 89.6 °F 99.8 °F 75.2 °F 62% 29.75 in 10.0 mi SE 9.2 mph - N/A   Clear
3:55 PM 89.6 °F 99.8 °F 75.2 °F 62% 29.75 in 10.0 mi ESE 5.8 mph - N/A   Clear
4:15 PM 89.6 °F 102.2 °F 77.0 °F 66% 29.74 in 10.0 mi SE 8.1 mph - N/A   Clear
4:35 PM 87.8 °F 97.6 °F 75.2 °F 66% 29.73 in 10.0 mi SSE 9.2 mph - N/A   Clear
4:55 PM 89.6 °F 102.2 °F 77.0 °F 66% 29.73 in 10.0 mi SSE 5.8 mph - N/A   Clear
5:15 PM 89.6 °F 104.7 °F 78.8 °F 70% 29.72 in 10.0 mi SE 4.6 mph - N/A   Clear
5:35 PM 89.6 °F 104.7 °F 78.8 °F 70% 29.72 in 10.0 mi Calm Calm - N/A   Clear
5:55 PM 89.6 °F 104.7 °F 78.8 °F 70% 29.71 in 10.0 mi Calm Calm - N/A   Clear
6:15 PM 91.4 °F 111.0 °F 80.6 °F 71% 29.71 in 10.0 mi Calm Calm - N/A   Clear
6:35 PM 91.4 °F 111.0 °F 80.6 °F 71% 29.71 in 10.0 mi SW 4.6 mph - N/A   Clear
6:55 PM 91.4 °F 107.2 °F 78.8 °F 66% 29.72 in 10.0 mi SW 4.6 mph - N/A   Clear
7:15 PM 91.4 °F 107.2 °F 78.8 °F 66% 29.73 in 10.0 mi SW 5.8 mph - N/A   Clear
7:35 PM 89.6 °F 104.7 °F 78.8 °F 70% 29.73 in 10.0 mi SW 6.9 mph - N/A   Clear
7:55 PM 87.8 °F 104.9 °F 80.6 °F 79% 29.74 in 10.0 mi Variable 4.6 mph - N/A   Clear
8:15 PM 87.8 °F 104.9 °F 80.6 °F 79% 29.75 in 10.0 mi SW 4.6 mph - N/A   Clear
8:35 PM 87.8 °F 104.9 °F 80.6 °F 79% 29.75 in 10.0 mi SW 4.6 mph - N/A   Clear
8:55 PM 86.0 °F 101.9 °F 80.6 °F 84% 29.75 in 10.0 mi SW 4.6 mph - N/A   Clear
9:15 PM 86.0 °F 101.9 °F 80.6 °F 84% 29.75 in 10.0 mi SW 4.6 mph - N/A   Clear
9:35 PM 86.0 °F 101.9 °F 80.6 °F 84% 29.75 in 10.0 mi SW 6.9 mph - N/A   Clear
9:55 PM 86.0 °F 99.3 °F 78.8 °F 79% 29.75 in 10.0 mi Variable 4.6 mph - N/A   Clear
10:15 PM 86.0 °F 99.3 °F 78.8 °F 79% 29.75 in 10.0 mi WSW 4.6 mph - N/A   Clear
10:35 PM 84.2 °F 96.1 °F 78.8 °F 84% 29.74 in 10.0 mi WSW 3.5 mph - N/A   Clear
10:55 PM 84.2 °F 96.1 °F 78.8 °F 84% 29.73 in 10.0 mi WSW 4.6 mph - N/A   Clear
11:15 PM 84.2 °F 96.1 °F 78.8 °F 84% 29.73 in 10.0 mi WSW 5.8 mph - N/A   Clear
11:35 PM 84.2 °F 96.1 °F 78.8 °F 84% 29.73 in 10.0 mi Variable 4.6 mph - N/A   Clear
11:55 PM 84.2 °F 96.1 °F 78.8 °F 84% 29.72 in 10.0 mi WSW 3.5 mph - N/A   Clear